x

Port Sanilac, Mi (pscm4) Weather Station

12:50pm - Fri 2nd Dec 2016 All times are CST. -6 hours from GMT.

  • Wind
    16mph, 24mph gusts
  • Air Temp 38°f
  • Sea Pressure 1015.6mb
  • Port Sanilac, Mi
  • Port Sanilac, Mi

More Historic Weather Station data

Upgrade to MSW Pro to gain access to the past 30 days of data for over 8000 Wavebouys and Weather Stations around the globe.

Join Pro

Comparision Forecast

View Surf forecast
   
Fri 12/02 12:50pm 16 24 mph 1015.6mb 38f
12:40pm 15 26 mph 1015.6mb 39f
12:30pm 17 24 mph 1015.6mb 38f
12:20pm 17 26 mph 1015.2mb 38f
12:10pm 14 25 mph 1015.6mb 38f
12:00pm 13 22 mph 1015.2mb 38f
11:50am 13 24 mph 1015.2mb 39f
11:40am 18 26 mph 1014.9mb 38f
11:30am 16 24 mph 1015.2mb 39f
11:20am 14 23 mph 1015.2mb 39f
11:10am 17 24 mph 1015.2mb 38f
11:00am 16 28 mph 1014.9mb 38f
10:50am 14 22 mph 1014.9mb 38f
10:40am 16 25 mph 1015.2mb 38f
10:30am 20 28 mph 1015.2mb 38f
10:20am 14 28 mph 1015.2mb 39f
10:10am 18 26 mph 1015.2mb 38f
10:00am 15 24 mph 1015.2mb 38f
9:50am 17 24 mph 1015.6mb 38f
9:40am 17 25 mph 1015.2mb 38f
9:30am 11 23 mph 1015.2mb 38f
9:20am 14 23 mph 1015.2mb 38f
9:10am 13 20 mph 1015.2mb 38f
9:00am 11 22 mph 1015.2mb 37f
8:50am 14 21 mph 1015.2mb 37f
8:40am 14 18 mph 1014.9mb 37f
8:30am 10 20 mph 1014.9mb 37f
8:20am 13 22 mph 1014.9mb 37f
8:10am 13 22 mph 1014.6mb 37f
8:00am 10 24 mph 1014.9mb 37f
7:50am 9 20 mph 1014.6mb 37f
7:40am 9 21 mph 1014.9mb 37f
7:30am 11 18 mph 1014.6mb 37f
7:20am 11 20 mph 1014.6mb 37f
7:10am 11 18 mph 1014.6mb 37f
7:00am 13 21 mph 1014.2mb 37f
6:50am 8 16 mph 1014.2mb 37f
6:40am 8 14 mph 1014.2mb 37f
6:30am 8 15 mph 1014.2mb 37f
6:20am 9 18 mph 1013.9mb 37f
6:10am 9 15 mph 1013.9mb 37f
6:00am 11 14 mph 1013.5mb 37f
5:50am 7 14 mph 1013.5mb 37f
5:40am 9 11 mph 1013.5mb 37f
5:30am 8 14 mph 1013.2mb 37f
5:20am 8 11 mph 1013.2mb 37f
5:10am 8 11 mph 1012.9mb 37f
5:00am 9 11 mph 1012.9mb 37f
4:50am 8 11 mph 1012.9mb 37f
4:40am 6 11 mph 1012.5mb 37f
4:30am 7 13 mph 1012.5mb 37f
4:20am 7 10 mph 1012.5mb 38f
4:10am 9 10 mph 1012.5mb 38f
4:00am 5 13 mph 1012.2mb 38f
3:50am 7 11 mph 1012.2mb 38f
3:40am 6 10 mph 1012.2mb 38f
3:30am 6 9 mph 1012.2mb 37f
3:20am 5 8 mph 1012.2mb 37f
3:10am 3 8 mph 1011.9mb 37f
3:00am 7 10 mph 1011.9mb 37f
2:50am 7 11 mph 1011.9mb 38f
2:40am 6 11 mph 1011.9mb 38f
2:30am 6 10 mph 1011.9mb 38f
2:20am 6 10 mph 1011.9mb 38f
2:10am 6 9 mph 1011.9mb 38f
2:00am 7 10 mph 1011.9mb 38f
1:50am 7 10 mph 1011.9mb 38f
1:40am 6 14 mph 1011.9mb 38f
1:30am 9 14 mph 1011.5mb 38f
1:20am 7 11 mph 1011.5mb 39f
1:10am 7 13 mph 1011.5mb 39f
1:00am 8 13 mph 1011.2mb 39f
12:50am 8 14 mph 1011.2mb 39f
12:40am 9 14 mph 1011.2mb 39f
12:30am 7 15 mph 1010.8mb 39f
12:20am 8 11 mph 1010.8mb 40f
12:10am 8 13 mph 1010.8mb 40f
12:00am 7 10 mph 1010.8mb 39f
Thu 12/01 11:50pm 5 9 mph 1010.5mb 39f
11:40pm 6 10 mph 1010.5mb 39f
11:30pm 6 10 mph 1010.5mb 39f
11:20pm 8 11 mph 1010.5mb 39f
11:10pm 7 13 mph 1010.5mb 39f
11:00pm 8 13 mph 1010.2mb 39f
10:50pm 7 13 mph 1010.2mb 39f
10:40pm 9 14 mph 1010.2mb 39f
10:30pm 9 22 mph 1009.8mb 39f
10:20pm 10 17 mph 1010.2mb 38f
10:10pm 13 22 mph 1009.8mb 39f
10:00pm 13 17 mph 1009.8mb 40f
9:50pm 9 20 mph 1009.5mb 39f
9:40pm 14 20 mph 1009.5mb 40f
9:30pm 9 17 mph 1009.5mb 41f
9:20pm 9 15 mph 1009.1mb 41f
9:10pm 9 14 mph 1009.1mb 41f
9:00pm 9 15 mph 1009.1mb 41f
8:50pm 9 16 mph 1008.8mb 41f
8:40pm 10 15 mph 1008.8mb 41f
8:30pm 11 16 mph 1008.8mb 41f
8:20pm 11 18 mph 1008.8mb 41f
8:10pm 13 21 mph 1008.5mb 41f
8:00pm 11 20 mph 1008.5mb 41f
7:50pm 11 18 mph 1008.5mb 42f
7:40pm 14 23 mph 1008.5mb 42f
7:30pm 13 21 mph 1008.5mb 42f
7:20pm 14 22 mph 1008.5mb 42f
7:10pm 13 23 mph 1008.1mb 42f
7:00pm 13 22 mph 1008.1mb 42f
6:50pm 10 18 mph 1008.1mb 42f
6:40pm 11 20 mph 1008.1mb 42f
6:30pm 13 20 mph 1008.1mb 42f
6:20pm 14 18 mph 1007.8mb 42f
6:10pm 10 17 mph 1007.8mb 42f
6:00pm 13 18 mph 1007.5mb 42f
5:50pm 10 20 mph 1007.5mb 42f
5:40pm 13 17 mph 1007.5mb 42f
5:30pm 10 18 mph 1007.5mb 42f
5:20pm 13 18 mph 1007.5mb 42f
5:10pm 13 20 mph 1007.1mb 42f
5:00pm 11 18 mph 1007.1mb 42f
4:50pm 10 17 mph 1007.1mb 42f
4:40pm 9 16 mph 1007.1mb 42f
4:30pm 9 16 mph 1006.8mb 41f
4:20pm 13 16 mph 1006.8mb 41f
4:10pm 11 17 mph 1006.4mb 41f
4:00pm 11 20 mph 1006.4mb 41f
3:50pm 11 18 mph 1006.4mb 41f
3:40pm 15 21 mph 1006.4mb 42f
3:30pm 13 21 mph 1006.1mb 42f
3:20pm 14 22 mph 1006.1mb 43f
3:10pm 14 23 mph 1005.8mb 43f
3:00pm 11 23 mph 1005.8mb 43f
2:50pm 14 21 mph 1005.8mb 43f
2:40pm 15 20 mph 1005.8mb 42f
2:30pm 14 22 mph 1005.4mb 42f
2:20pm 17 23 mph 1005.4mb 42f
2:10pm 16 25 mph 1005.4mb 42f
2:00pm 14 22 mph 1005.4mb 42f
1:50pm 17 26 mph 1005.1mb 42f
1:40pm 14 26 mph 1005.1mb 42f
1:30pm 16 24 mph 1005.1mb 42f
1:20pm 17 26 mph 1005.1mb 42f
1:10pm 18 29 mph 1005.1mb 41f
1:00pm 11 29 mph 1005.1mb 41f
12:50pm 14 22 mph 1004.7mb 41f
11:50am 11 22 mph 1004.7mb 41f
11:30am 17 25 mph 1004.7mb 40f
11:20am 17 26 mph 1004.7mb 40f
11:10am 14 28 mph 1004.4mb 40f
11:00am 17 29 mph 1004.4mb 40f
10:50am 21 29 mph 1004.4mb 39f
10:40am 18 26 mph 1004.4mb 39f
10:30am 13 28 mph 1004.4mb 40f
10:20am 17 26 mph 1004.1mb 40f
10:10am 21 32 mph 1004.1mb 39f
10:00am 22 30 mph 1004.4mb 39f
9:50am 20 25 mph 1004.4mb 39f
9:40am 18 32 mph 1004.4mb 38f
9:30am 16 25 mph 1004.4mb 38f
9:20am 14 26 mph 1004.1mb 39f
9:10am 17 26 mph 1004.1mb 38f
9:00am 20 29 mph 1004.1mb 38f
8:50am 17 25 mph 1004.1mb 38f
8:40am 16 24 mph 1004.1mb 38f
8:30am 15 23 mph 1004.1mb 38f
8:20am 15 23 mph 1003.7mb 38f
8:10am 15 25 mph 1004.1mb 38f
8:00am 14 21 mph 1003.7mb 37f
7:50am 13 20 mph 1004.1mb 37f
7:40am 13 20 mph 1003.7mb 37f
7:30am 11 21 mph 1003.7mb 37f
7:20am 11 18 mph 1003.7mb 37f
7:10am 14 18 mph 1003.7mb 37f
7:00am 13 21 mph 1003.7mb 37f
6:50am 13 17 mph 1003.7mb 37f
6:40am 14 20 mph 1003.7mb 36f
6:30am 14 22 mph 1003.7mb 36f
6:20am 14 18 mph 1003.7mb 36f
6:10am 13 24 mph 1003.7mb 36f
6:00am 11 20 mph 1003.7mb 36f
5:50am 10 18 mph 1003.7mb 37f
5:40am 13 22 mph 1003.7mb 36f
5:30am 14 21 mph 1003.4mb 37f
5:20am 11 18 mph 1003.4mb 37f
5:10am 10 16 mph 1003.4mb 37f
5:00am 14 18 mph 1003mb 37f
4:50am 14 18 mph 1003mb 37f
4:40am 14 22 mph 1003mb 38f
4:30am 10 17 mph 1003mb 38f
4:20am 10 18 mph 1003mb 39f
4:10am 13 16 mph 1003mb 39f
4:00am 10 16 mph 1003mb 39f
3:50am 11 17 mph 1003mb 39f
3:40am 13 18 mph 1003mb 39f
3:30am 11 17 mph 1003mb 39f
3:20am 11 16 mph 1002.7mb 39f
3:10am 10 16 mph 1002.7mb 39f
3:00am 11 18 mph 1002.7mb 40f
2:50am 10 17 mph 1002.7mb 40f
2:40am 11 16 mph 1002.7mb 40f
2:30am 13 16 mph 1002.7mb 40f
2:20am 10 16 mph 1002.7mb 40f
2:10am 10 17 mph 1002.7mb 40f
2:00am 11 17 mph 1002.7mb 40f
1:50am 14 18 mph 1002.7mb 40f
1:40am 14 18 mph 1002.7mb 40f
1:30am 13 21 mph 1002.7mb 40f
1:20am 13 18 mph 1002.7mb 40f
1:10am 9 16 mph 1002.4mb 40f
1:00am 9 20 mph 1002mb 40f
12:50am 13 22 mph 1002.4mb 40f
12:40am 15 21 mph 1002.4mb 41f
12:30am 9 16 mph 1002mb 41f
12:20am 9 18 mph 1002mb 41f
12:10am 13 18 mph 1001.7mb 41f
12:00am 13 16 mph 1001.7mb 41f
Wed 11/30 11:50pm 10 18 mph 1001.7mb 41f
11:40pm 10 16 mph 1001.4mb 42f
11:30pm 10 15 mph 1001.4mb 42f
11:20pm 9 15 mph 1001mb 42f
11:10pm 9 16 mph 1001mb 42f
11:00pm 9 15 mph 1001mb 42f
10:50pm 9 15 mph 1000.7mb 42f
10:40pm 10 20 mph 1001mb 42f
10:30pm 10 17 mph 1000.7mb 42f
10:20pm 11 17 mph 1000.7mb 42f
10:10pm 7 16 mph 1000.7mb 42f
10:00pm 8 14 mph 1000.7mb 42f
9:50pm 9 15 mph 1000.7mb 42f
9:40pm 9 14 mph 1000.7mb 42f
9:30pm 9 15 mph 1000.3mb 42f
9:20pm 10 20 mph 1000.3mb 42f
9:10pm 9 15 mph 1000.3mb 42f
9:00pm 10 18 mph 1000.3mb 42f
8:50pm 13 21 mph 1000mb 42f
8:40pm 13 22 mph 999.7mb 43f
8:30pm 13 17 mph 999.7mb 43f
8:20pm 10 17 mph 999.7mb 43f
8:10pm 8 15 mph 999.7mb 44f
8:00pm 11 21 mph 999.7mb 44f
7:50pm 14 21 mph 999.3mb 44f
7:40pm 11 21 mph 999.3mb 45f
7:30pm 13 24 mph 999.7mb 46f
7:20pm 14 23 mph 999.3mb 46f
7:10pm 6 10 mph 999.7mb 47f
7:00pm 6 8 mph 999.7mb 47f
6:50pm 6 9 mph 999.7mb 47f
6:40pm 6 10 mph 999.7mb 47f
6:30pm 6 9 mph 999.7mb 47f
6:20pm 7 11 mph 999.3mb 47f
6:10pm 9 14 mph 999mb 47f
6:00pm 8 14 mph 998.6mb 47f
5:50pm 8 11 mph 998.6mb 47f
5:40pm 9 13 mph 998.6mb 47f
5:00pm 7 14 mph 998.6mb 49f
4:50pm 7 15 mph 998.3mb 49f
4:40pm 7 11 mph 999mb 50f
4:30pm 6 8 mph 999mb 50f
4:20pm 6 8 mph 999mb 50f
4:10pm 5
mph
999mb 48f
4:00pm 3 6 mph 998.6mb 48f
3:50pm 3 5 mph 998.6mb 48f
3:40pm 3 5 mph 998.6mb 48f
3:30pm 5
mph
998.6mb 47f
3:20pm 5
mph
998.6mb 48f
3:10pm 2 6 mph 998.6mb 48f
3:00pm 5 6 mph 998.6mb 49f
2:50pm 3 5 mph 998.6mb 49f
2:40pm 3
mph
998.6mb 50f
2:30pm 2 3 mph 998.6mb 49f
2:20pm 3 5 mph 998.6mb 49f
2:10pm 3
mph
998.6mb 49f
2:00pm 2 3 mph 998.6mb 49f
1:50pm 2 3 mph 999mb 49f
1:40pm 5 6 mph 999mb 49f
1:30pm 5 6 mph 999mb 49f
1:20pm 6 7 mph 999.3mb 48f
1:10pm 6
mph
999.3mb 49f
1:00pm 5 6 mph 999.3mb 49f
12:50pm 3 5 mph 999.3mb 50f
12:40pm 2 3 mph 999.3mb 51f
12:30pm 3 5 mph 999.7mb 50f
12:20pm 3 5 mph 999.7mb 50f
12:10pm 2 3 mph 999.7mb 51f
12:00pm  -  6 mph 999.7mb 51f
11:50am 5 7 mph 999.7mb 49f
11:40am 6 9 mph 1000mb 49f
11:30am 10
mph
1000.3mb 48f
11:20am 6 7 mph 1000.3mb 48f
11:10am 7
mph
1000.3mb 48f
11:00am 6 8 mph 1000.3mb 48f
10:50am 6 7 mph 1000.7mb 48f
10:40am 6
mph
1001mb 48f
10:30am 6
mph
1001mb 48f
10:20am 3 6 mph 1001mb 48f
10:10am 5
mph
1001.4mb 47f
10:00am 5 6 mph 1001.7mb 47f
9:50am 6 7 mph 1001.7mb 47f
9:40am 5 7 mph 1001.7mb 48f
9:30am 1 5 mph 1001.7mb 50f
9:20am 3 5 mph 1001.7mb 49f
9:10am 3 6 mph 1001.7mb 49f
9:00am 3 5 mph 1002mb 48f
8:50am 3 5 mph 1002mb 47f
8:40am 2 5 mph 1002mb 49f
8:30am 3 7 mph 1002.4mb 48f
8:20am 2 3 mph 1002.4mb 47f
8:10am 3 6 mph 1002.4mb 46f
8:00am 6 7 mph 1002.4mb 45f
7:50am 5
mph
1002.7mb 45f
7:40am 5
mph
1002.7mb 45f
7:30am 3 6 mph 1002.7mb 45f
7:20am 5 6 mph 1002.7mb 44f
7:10am 3 6 mph 1002.7mb 44f
7:00am 5 7 mph 1002.7mb 43f
6:50am 6 7 mph 1003mb 43f
6:00am 6 7 mph 1003mb 44f
5:50am 5 7 mph 1003mb 44f
5:40am 6 7 mph 1003mb 45f
5:30am 6 7 mph 1003mb 45f
5:20am 6 7 mph 1003mb 46f
5:10am 5 6 mph 1003mb 46f
5:00am 5 6 mph 1003mb 46f
4:50am 6 7 mph 1003mb 46f
4:40am 5 6 mph 1003.4mb 45f
4:30am 5
mph
1003.4mb 45f
4:20am 3
mph
1003.4mb 45f
4:10am 3 5 mph 1003.4mb 45f
4:00am 3
mph
1003.4mb 46f
3:50am 3 5 mph 1003.4mb 46f
3:40am 3 5 mph 1003.4mb 47f
3:30am 3 5 mph 1003.4mb 46f
3:20am 5 6 mph 1003.7mb 47f
3:10am 5 6 mph 1003.7mb 47f
3:00am 5 6 mph 1003.7mb 47f
2:50am 3 6 mph 1004.1mb 47f
2:40am 5 6 mph 1004.1mb 47f
2:30am 5 6 mph 1004.1mb 47f
2:20am 3 5 mph 1004.1mb 47f
2:10am 3 5 mph 1004.4mb 48f
2:00am 1 3 mph 1004.4mb 48f
1:50am 2 6 mph 1004.7mb 48f
1:40am 5 6 mph 1005.1mb 49f
1:30am 3 5 mph 1004.4mb 47f
1:20am  -  2 mph 1005.1mb 48f
1:10am  -  2 mph 1005.1mb 48f
1:00am 2 5 mph 1005.1mb 49f
12:50am  -  2 mph 1005.1mb 50f
12:40am  -  7 mph 1005.1mb 50f
12:30am 7 11 mph 1005.4mb 50f
12:20am 6 8 mph 1005.1mb 49f
12:10am 2 6 mph 1005.1mb 49f
12:00am 5 8 mph 1005.4mb 49f
Tue 11/29 11:50pm 7 8 mph 1005.4mb 48f
11:40pm 6 8 mph 1005.8mb 49f
11:30pm 6 10 mph 1005.4mb 47f
11:20pm 9 16 mph 1005.4mb 48f
11:10pm 11 13 mph 1005.4mb 49f
11:00pm 5 7 mph 1005.8mb 50f
10:50pm 6 14 mph 1005.8mb 47f
10:40pm 13 18 mph 1006.1mb 47f
10:30pm 16 23 mph 1006.1mb 49f
10:20pm 8 11 mph 1006.1mb 49f
10:10pm 13 16 mph 1006.1mb 48f
10:00pm 15 17 mph 1006.1mb 47f
9:50pm 13 16 mph 1006.1mb 47f
9:40pm 13 15 mph 1006.1mb 51f
9:30pm 11 14 mph 1006.1mb 50f
9:20pm 11 15 mph 1006.1mb 47f
9:10pm 13 16 mph 1006.1mb 46f
9:00pm 14 16 mph 1006.4mb 47f
8:50pm 15 18 mph 1006.4mb 46f
8:40pm 14 16 mph 1006.4mb 46f
8:30pm 10 11 mph 1006.1mb 46f
8:20pm 9
mph
1006.1mb 46f
8:10pm 7 13 mph 1006.1mb 46f
8:00pm 13 14 mph 1006.1mb 46f
7:50pm 13 15 mph 1006.4mb 46f
7:40pm 13 15 mph 1006.4mb 46f
7:30pm 14 15 mph 1006.1mb 46f
7:20pm 13 14 mph 1006.1mb 46f
7:10pm 13 15 mph 1006.1mb 46f
7:00pm 15
mph
1006.1mb 46f
6:50pm 14 15 mph 1006.1mb 47f
6:40pm 15 17 mph 1006.1mb 47f
6:30pm 16 18 mph 1006.1mb 47f
6:20pm 16 17 mph 1006.1mb 47f
6:10pm 16 17 mph 1006.1mb 47f
6:00pm 15 16 mph 1005.8mb 47f
5:50pm 14 15 mph 1005.8mb 47f
5:40pm 13 15 mph 1005.8mb 47f
5:30pm 14 16 mph 1005.8mb 47f
5:20pm 15
mph
1005.8mb 47f
5:10pm 15 16 mph 1005.4mb 47f
5:00pm 15 16 mph 1005.4mb 47f
4:50pm 14 15 mph 1005.4mb 47f
4:40pm 13 15 mph 1005.4mb 47f
4:30pm 14 15 mph 1005.1mb 47f
4:20pm 13 14 mph 1005.1mb 47f
4:10pm 13 15 mph 1004.7mb 47f
4:00pm 14 15 mph 1004.4mb 49f
3:50pm 13 14 mph 1004.4mb 49f
3:40pm 13 14 mph 1004.4mb 48f
3:30pm 13 14 mph 1004.4mb 49f
3:20pm 13 14 mph 1004.1mb 49f
3:10pm 11 14 mph 1004.1mb 49f
3:00pm 13
mph
1003.7mb 49f
2:50pm 8 10 mph 1003.7mb 55f
2:40pm 8 14 mph 1003.7mb 56f
2:30pm 9 14 mph 1003.7mb 56f
2:20pm 13 15 mph 1003.4mb 57f
2:10pm 13 15 mph 1003.4mb 57f
2:00pm 14 17 mph 1003.4mb 57f
1:50pm 8 13 mph 1003.4mb 57f
1:40pm 8 13 mph 1003mb 56f
1:30pm 8 13 mph 1003mb 56f
1:20pm 9 14 mph 1002.7mb 56f
1:10pm 9 15 mph 1002.7mb 56f
1:00pm 9 14 mph 1002.7mb 56f
12:50pm 10 17 mph 1002.7mb 56f
12:40pm 9 15 mph 1002.7mb 56f
12:30pm 9 14 mph 1002.7mb 55f
12:20pm 10 20 mph 1002.4mb 56f
12:10pm 13 18 mph 1002.4mb 55f
12:00pm 10 18 mph 1002.7mb 55f
11:50am 11 21 mph 1002.7mb 55f
11:40am 15 23 mph 1002.4mb 55f
11:30am 15 20 mph 1002.7mb 55f
11:20am 10 22 mph 1002.7mb 55f
11:10am 13 21 mph 1002.7mb 55f
11:00am 14 22 mph 1002.4mb 55f
10:50am 16 24 mph 1002.4mb 55f
10:40am 16 24 mph 1002.4mb 55f
10:30am 18 26 mph 1002.4mb 54f
10:20am 16 23 mph 1002.4mb 54f
10:10am 17 29 mph 1002mb 54f
10:00am 17 25 mph 1002mb 54f
9:50am 21 26 mph 1002mb 53f
9:40am 15 28 mph 1002mb 53f
9:30am 17 30 mph 1001.7mb 53f
9:20am 21 26 mph 1001.7mb 53f
9:10am 16 29 mph 1001.7mb 53f
9:00am 18 23 mph 1001.7mb 52f
8:50am 16 23 mph 1001.7mb 52f
8:40am 15 23 mph 1001.4mb 52f
8:30am 15 23 mph 1001.4mb 51f
8:20am 15 22 mph 1001.4mb 51f
8:10am 14 21 mph 1001.4mb 51f
8:00am 15 20 mph 1001mb 51f
7:50am 15 20 mph 1000.7mb 50f
7:40am 15 20 mph 1000.7mb 50f
7:30am 15 21 mph 1000.3mb 51f
7:20am 17 24 mph 1000.3mb 51f
7:10am 18 24 mph 1000mb 51f
7:00am 17 25 mph 999.7mb 51f
6:50am 18 24 mph 999.3mb 50f
6:40am 20 24 mph 999mb 50f
6:30am 18 22 mph 999mb 50f
6:20am 16 23 mph 999mb 50f
6:10am 17 22 mph 998.6mb 50f
6:00am 18 23 mph 998.6mb 50f
5:50am 17 24 mph 998.3mb 50f
5:40am 15 21 mph 998mb 50f
5:30am 17 22 mph 998mb 49f
5:20am 17 23 mph 997.6mb 50f
5:10am 16 23 mph 997.6mb 50f
5:00am 16 22 mph 997.3mb 50f
4:50am 17 24 mph 997mb 50f
4:40am 17 23 mph 997.3mb 49f
4:30am 17 24 mph 997.3mb 49f
4:20am 17 25 mph 997mb 49f
4:10am 17 26 mph 997mb 49f
4:00am 18 24 mph 996.6mb 49f
3:50am 18 26 mph 996.6mb 49f
3:40am 20 24 mph 996.6mb 49f
3:30am 16 22 mph 996.6mb 48f
3:20am 20 24 mph 996.6mb 46f
3:10am 24 28 mph 996.6mb 46f
3:00am 25 30 mph 996.6mb 46f
2:50am 28 32 mph 997mb 46f
2:40am 26 32 mph 997mb 45f
2:30am 20 34 mph 997mb 46f
2:20am 30 38 mph 996.3mb 46f
2:10am 30 34 mph 996.3mb 46f
2:00am 31 36 mph 996.3mb 46f
1:50am 31 37 mph 996.6mb 46f
1:40am 31 40 mph 996.3mb 45f
1:30am 34 44 mph 996.3mb 46f
1:20am 34 43 mph 995.9mb 45f
1:10am 37 47 mph 995.9mb 45f
1:00am 32 40 mph 995.9mb 45f
12:50am 30 38 mph 996.3mb 45f
12:40am 34 39 mph 995.9mb 46f
12:30am 33 41 mph 996.3mb 44f
12:20am 29 37 mph 996.3mb 45f
12:10am 31 39 mph 997mb 45f
12:00am 30 37 mph 997.3mb 45f
Mon 11/28 11:50pm 32 38 mph 997.3mb 46f
11:40pm 31 38 mph 997mb 45f
11:30pm 30 36 mph 997.6mb 45f
11:20pm 31 36 mph 998mb 46f
11:10pm 30 39 mph 998.3mb 46f
11:00pm 29 37 mph 998.3mb 46f
10:50pm 32 39 mph 998.3mb 46f
10:40pm 33 41 mph 998.3mb 46f
10:30pm 33 40 mph 998.6mb 46f
10:20pm 34 40 mph 998.6mb 46f
10:10pm 37 45 mph 999mb 46f
10:00pm 34 44 mph 999mb 47f
9:50pm 36 43 mph 999mb 47f
9:40pm 33 47 mph 999.7mb 46f
9:30pm 33 44 mph 999.7mb 46f
9:20pm 31 41 mph 1000mb 47f
9:10pm 31 43 mph 1000mb 47f
9:00pm 31 37 mph 1000.3mb 47f
8:50pm 29 34 mph 1000.7mb 47f
8:40pm 29 36 mph 1001mb 46f
8:30pm 29 37 mph 1001.4mb 46f
8:20pm 28 36 mph 1001.7mb 46f
8:10pm 30 37 mph 1001.4mb 47f
8:00pm 30 34 mph 1002mb 47f
7:50pm 28 36 mph 1002.4mb 47f